Location: East Irvine
(33.6759°N, 117.7598°W)
Time: 23:04:07
(UTC+00:00)

Delta 2 Rocket - Pass Details

Date: 15 November 2025
Orbit: 355 x 506 km, 35.6° (Epoch: 13 December)

Event Time Altitude Azimuth Distance (km) Brightness Sun altitude
Rises 02:07:26 0° 281° (WNW) 2,642 8.1 -16.6°
Reaches altitude 10° 02:09:46 10° 274° (W) 1,753 7.1 -17.1°
Maximum altitude 02:13:35 40° 204° (SSW) 768 4.3 -17.8°
Enters shadow 02:15:56 20° 144° (SE) 1,238 4.9 -18.3°
